TimeCDT,TemperatureF,Dew PointF,Humidity,Sea Level PressureIn,VisibilityMPH,Wind Direction,Wind SpeedMPH,Gust SpeedMPH,PrecipitationIn,Events,Conditions,WindDirDegrees,DateUTC
12:51 AM,82.0,69.1,65,29.91,10.0,SSW,9.2,-,N/A,,Mostly Cloudy,200,2013-06-25 05:51:00
1:51 AM,81.0,69.1,67,29.92,10.0,SSW,3.5,-,N/A,,Mostly Cloudy,210,2013-06-25 06:51:00
2:51 AM,80.1,69.1,69,29.92,10.0,SSW,5.8,-,N/A,,Mostly Cloudy,200,2013-06-25 07:51:00
3:51 AM,79.0,69.1,72,29.91,10.0,South,6.9,-,N/A,,Mostly Cloudy,170,2013-06-25 08:51:00
4:51 AM,78.1,69.1,74,29.91,10.0,South,8.1,-,N/A,,Scattered Clouds,180,2013-06-25 09:51:00
5:51 AM,78.1,69.1,74,29.92,10.0,South,10.4,-,N/A,,Mostly Cloudy,190,2013-06-25 10:51:00
6:51 AM,78.1,69.1,74,29.93,9.0,South,8.1,-,N/A,,Mostly Cloudy,190,2013-06-25 11:51:00
7:51 AM,81.0,70.0,69,29.91,9.0,South,11.5,19.6,N/A,,Mostly Cloudy,180,2013-06-25 12:51:00
8:51 AM,84.0,70.0,63,29.92,10.0,SW,12.7,-,N/A,,Mostly Cloudy,220,2013-06-25 13:51:00
9:51 AM,86.0,71.1,61,29.94,10.0,SSW,13.8,20.7,N/A,,Mostly Cloudy,210,2013-06-25 14:51:00
10:51 AM,88.0,71.1,57,29.94,10.0,SSW,15.0,19.6,N/A,,Mostly Cloudy,210,2013-06-25 15:51:00
11:51 AM,90.0,71.1,54,29.93,10.0,SW,15.0,21.9,N/A,,Mostly Cloudy,220,2013-06-25 16:51:00
12:51 PM,91.0,71.1,52,29.91,10.0,SW,13.8,21.9,N/A,,Mostly Cloudy,220,2013-06-25 17:51:00
2:51 PM,93.0,71.1,49,29.88,10.0,SSW,13.8,-,N/A,,Mostly Cloudy,210,2013-06-25 19:51:00
3:51 PM,93.0,72.0,50,29.85,10.0,South,15.0,-,N/A,,Mostly Cloudy,190,2013-06-25 20:51:00
4:51 PM,93.0,71.1,49,29.80,10.0,South,19.6,26.5,N/A,,Mostly Cloudy,180,2013-06-25 21:51:00
5:51 PM,91.0,70.0,50,29.78,10.0,SSW,11.5,-,N/A,,Mostly Cloudy,200,2013-06-25 22:51:00
6:51 PM,90.0,70.0,52,29.80,10.0,SSW,10.4,19.6,N/A,,Mostly Cloudy,200,2013-06-25 23:51:00
7:51 PM,88.0,71.1,57,29.80,10.0,South,11.5,-,N/A,,Mostly Cloudy,190,2013-06-26 00:51:00
8:51 PM,87.1,71.1,59,29.81,10.0,South,9.2,-,N/A,,Mostly Cloudy,190,2013-06-26 01:51:00
9:51 PM,86.0,71.1,61,29.84,10.0,South,8.1,-,N/A,,Mostly Cloudy,180,2013-06-26 02:51:00
10:51 PM,84.9,71.1,63,29.84,10.0,South,8.1,-,N/A,,Mostly Cloudy,170,2013-06-26 03:51:00
11:51 PM,82.9,71.1,67,29.83,10.0,South,6.9,-,N/A,,Partly Cloudy,190,2013-06-26 04:51:00